TimeEST,TemperatureF,Dew PointF,Humidity,Sea Level PressureIn,VisibilityMPH,Wind Direction,Wind SpeedMPH,Gust SpeedMPH,PrecipitationIn,Events,Conditions,WindDirDegrees,DateUTC
12:51 AM,28.0,21.0,75,29.95,10.0,SW,4.6,-,N/A,,Clear,230,2013-02-13 05:51:00
1:51 AM,30.9,21.9,69,29.97,10.0,WNW,4.6,-,N/A,,Clear,290,2013-02-13 06:51:00
2:51 AM,26.1,21.0,81,29.96,10.0,Calm,Calm,-,N/A,,Clear,0,2013-02-13 07:51:00
3:51 AM,26.1,21.0,81,29.93,10.0,Calm,Calm,-,N/A,,Clear,0,2013-02-13 08:51:00
4:51 AM,24.1,19.9,84,29.93,10.0,Calm,Calm,-,N/A,,Clear,0,2013-02-13 09:51:00
5:51 AM,25.0,21.0,85,29.92,9.0,Calm,Calm,-,N/A,,Clear,0,2013-02-13 10:51:00
6:51 AM,24.1,21.0,88,29.92,9.0,Calm,Calm,-,N/A,,Clear,0,2013-02-13 11:51:00
7:51 AM,25.0,21.9,88,29.91,6.0,Calm,Calm,-,N/A,,Clear,0,2013-02-13 12:51:00
8:51 AM,30.9,25.0,79,29.89,8.0,Calm,Calm,-,N/A,,Clear,0,2013-02-13 13:51:00
9:51 AM,36.0,25.0,64,29.87,10.0,ENE,3.5,-,N/A,,Clear,70,2013-02-13 14:51:00
10:51 AM,37.9,24.1,57,29.89,10.0,SSE,6.9,-,N/A,,Clear,150,2013-02-13 15:51:00
11:51 AM,39.9,25.0,55,29.86,10.0,Calm,Calm,-,N/A,,Clear,0,2013-02-13 16:51:00
12:51 PM,42.1,26.1,53,29.81,10.0,Variable,3.5,-,N/A,,Clear,0,2013-02-13 17:51:00
1:51 PM,41.0,26.1,55,29.78,10.0,NNE,4.6,-,N/A,,Clear,30,2013-02-13 18:51:00
2:51 PM,41.0,26.1,55,29.75,10.0,NE,4.6,-,N/A,,Scattered Clouds,40,2013-02-13 19:51:00
3:51 PM,41.0,26.1,55,29.74,10.0,ENE,3.5,-,N/A,,Mostly Cloudy,70,2013-02-13 20:51:00
4:51 PM,39.9,27.0,60,29.72,10.0,East,5.8,-,N/A,,Overcast,80,2013-02-13 21:51:00
5:51 PM,37.9,27.0,65,29.70,10.0,NNE,3.5,-,N/A,,Overcast,20,2013-02-13 22:51:00
6:44 PM,37.4,28.4,70,29.70,6.0,Calm,Calm,-,0.00,Snow,Light Snow,0,2013-02-13 23:44:00
6:51 PM,36.0,28.9,76,29.72,6.0,NW,3.5,-,0.00,Snow,Light Snow,320,2013-02-13 23:51:00
7:43 PM,35.6,30.2,81,29.72,2.0,Calm,Calm,-,0.01,Snow,Light Snow,0,2013-02-14 00:43:00
7:51 PM,34.0,30.9,89,29.73,2.0,Calm,Calm,-,0.02,Snow,Light Snow,0,2013-02-14 00:51:00
8:00 PM,33.8,32.0,93,29.72,2.5,Calm,Calm,-,0.01,Snow,Light Snow,0,2013-02-14 01:00:00
8:51 PM,34.0,33.1,96,29.72,2.0,Calm,Calm,-,0.01,,Overcast,0,2013-02-14 01:51:00
9:21 PM,33.8,32.0,93,29.71,2.0,Calm,Calm,-,0.01,Snow,Light Snow,0,2013-02-14 02:21:00
9:36 PM,33.8,32.0,93,29.71,1.5,Calm,Calm,-,0.01,Snow,Light Snow,0,2013-02-14 02:36:00
9:51 PM,33.1,32.0,96,29.72,2.0,Calm,Calm,-,0.02,Snow,Light Snow,0,2013-02-14 02:51:00
10:06 PM,33.8,32.0,93,29.71,1.2,Calm,Calm,-,0.00,Snow,Light Snow,0,2013-02-14 03:06:00
10:51 PM,33.1,32.0,96,29.73,1.0,Calm,Calm,-,0.01,Snow,Light Snow,0,2013-02-14 03:51:00
11:43 PM,33.8,32.0,93,29.71,1.0,Calm,Calm,-,0.01,,Overcast,0,2013-02-14 04:43:00
11:51 PM,33.1,32.0,96,29.73,1.5,SW,3.5,-,0.01,,Overcast,220,2013-02-14 04:51:00